Tracking 33845 objects as of 17-Apr-2026
HD Live streaming from Space Station
objects crossing your sky now

STARLINK-30979

Track STARLINK-30979 now!
10-day predictions
STARLINK-30979 is classified as:


NORAD ID: 58485
Int'l Code: 2023-186N
Perigee: 488.4 km
Apogee: 491.9 km
Inclination: 43.0 °
Period: 94.3 minutes
Semi major axis: 6861 km
RCS: Unknown
Launch date: December 3, 2023
Source: United States (US)
Launch site: AIR FORCE EASTERN TEST RANGE (AFETR)
Your satellite tracking list
Your tracking list is empty




NASA's NSSDC Master Catalog

Two Line Element Set (TLE):
1 58485U 23186N   26107.00409896 -.00004040  00000-0 -13729-3 0  9997
2 58485  43.0091 207.4506 0002560 252.7670 107.2902 15.27592233131741
Source of the keplerian elements: AFSPC